[[{"header":{"parameterUnit":"m.s-1","parameterCategory":1,"la1":30.2991,"la2":30.254,"lo1":-89.0895,"lo2":-89.0444,"dy":0.0017,"dx":0.0017,"nx":28,"ny":28,"refTime":"2024-06-07T09:00:00:Z","depth":0,"parameterNumber":2,"parameterNumberName":"U-component_of_WINDS"},"data":[0,0,0,0,0,0,0,0,0,0,0,0,0,0,0,0,0,0,0,0,0,0,0,0,0,0,0,0,0,0,0,0,0,0,0,0,0,0,0,0,0,0,0,0,0,0,0,0,0,0,0,0,0,0,0,0,0,0,-3.4521,-3.4521,0,-3.4527,-3.4527,-3.4527,-3.439,-3.4386,-3.4382,-3.4379,-3.4388,-3.4391,-3.4395,0,0,0,0,0,0,0,0,0,0,0,0,0,-3.4393,-3.4396,-3.4521,-3.4521,-3.4521,-3.4527,-3.4527,-3.4527,-3.439,-3.4386,-3.4381,-3.4377,-3.4387,-3.4391,-3.4395,0,0,0,0,0,0,0,0,0,0,0,0,0,-3.4429,-3.4397,-3.4521,-3.4453,-3.4447,-3.4527,-3.4527,-3.4527,-3.4391,-3.4386,-3.438,-3.4375,-3.4385,-3.439,-3.4396,-3.4541,0,0,-3.4413,-3.4415,0,0,0,0,0,0,0,0,-3.4427,-3.4434,-3.4463,-3.4458,-3.4452,-3.4452,-3.4485,-3.4532,-3.4393,-3.4413,-3.4379,-3.4372,-3.4414,-3.4417,-3.443,-3.4542,-3.4542,-3.4413,-3.4417,-3.4419,-3.4421,0,0,0,0,0,0,0,-3.4425,-3.4433,-3.4523,-3.4464,-3.4457,-3.4423,-3.4422,-3.4493,-3.4444,-3.441,-3.44,-3.4403,-3.4409,-3.4425,-3.4429,-3.4542,-3.4413,-3.4418,-3.4421,-3.4424,-3.477,-3.4776,0,0,0,0,0,0,-3.4431,-3.4432,-3.4523,-3.4523,-3.4425,-3.443,-3.4429,-3.4457,-3.4443,-3.4436,-3.4408,-3.4396,-3.4418,-3.4423,-3.4429,-3.4595,-3.4419,-3.4424,-3.4427,-3.4764,-3.4771,-3.4778,0,0,0,0,0,0,-3.4429,-3.4441,-3.4523,-3.4475,-3.4483,-3.4438,-3.4471,-3.446,-3.4475,-3.4441,-3.4432,-3.4432,-3.4414,-3.4421,-3.4513,-3.4594,-3.4427,-3.4432,-3.4757,-3.4767,-3.4775,-3.4931,0,0,0,0,0,0,-3.4426,-3.4441,-3.4495,-3.4477,-3.4486,-3.4607,-3.4476,-3.4465,-3.4485,-3.4471,-3.4462,-3.4455,-3.441,-3.4506,-3.4519,-3.4598,-3.4436,-3.475,-3.4761,-3.4772,-3.4918,-3.4944,-3.4966,0,0,0,0,0,-3.4422,-3.454,-3.4499,-3.451,-3.4553,-3.4612,-3.4617,-3.4562,-3.4492,-3.4546,-3.4524,-3.4455,-3.4584,-3.4516,-3.453,-3.4612,-3.4745,-3.4758,-3.4771,-3.4907,-3.4939,-3.4965,0,0,0,0,0,0,-3.457,-3.4537,-3.449,-3.4606,-3.4613,-3.4589,-3.4655,-3.4598,-3.4625,-3.4611,-3.4543,-3.4542,-3.4645,-3.4638,-3.4564,-3.4751,-3.4652,-3.4668,-3.4751,-3.478,-3.4804,-3.4802,-3.4441,0,0,0,0,0,-3.4616,-3.4666,-3.4635,-3.474,-3.4746,-3.4701,-3.4724,-3.4681,-3.4686,-3.4689,-3.4673,-3.4681,-3.4722,-3.4751,-3.4788,-3.4918,-3.4912,-3.4981,-3.5005,-3.5024,-3.5039,-3.5104,-3.5133,-3.4821,-3.4821,-3.4821,0,0,-3.4712,-3.47,-3.4736,-3.4769,-3.4769,-3.4823,-3.4704,-3.4766,-3.4805,-3.4698,-3.4783,-3.4773,-3.4777,-3.4887,-3.4935,-3.4885,-3.5124,-3.5041,-3.5057,-3.506,-3.512,-3.515,-3.5176,-3.483,-3.4829,-3.4827,0,0,-3.4913,-3.491,-3.4995,-3.4998,-3.4999,-3.4968,-3.4989,-3.4974,-3.4961,-3.5046,-3.4966,-3.5012,-3.5086,-3.5091,-3.5104,-3.5307,-3.5243,-3.5321,-3.5444,-3.5508,-3.5533,-3.5554,-3.5623,-3.5649,-3.5336,-3.5336,-3.5337,0,-3.5032,-3.5108,-3.5047,-3.5114,-3.513,-3.5035,-3.5121,-3.5127,-3.5141,-3.5155,-3.5098,-3.5187,-3.5184,-3.5293,-3.5342,-3.5357,-3.5377,-3.532,-3.5534,-3.5555,-3.5574,-3.5639,-3.5666,-3.5345,-3.5344,-3.5343,-3.5343,0,-3.5253,-3.5307,-3.5376,-3.539,-3.5414,-3.5491,-3.5442,-3.5474,-3.543,-3.5405,-3.5491,-3.5484,-3.5516,-3.5539,-3.5498,-3.5643,-3.561,-3.5546,-3.5444,-3.5614,-3.5673,-3.5698,-3.5358,-3.5355,-3.5352,-3.535,0,0,-3.5546,-3.5524,-3.555,-3.5553,-3.5548,-3.5589,-3.5661,-3.5691,-3.5719,-3.5733,-3.579,-3.5855,-3.5793,-3.5808,-3.5766,-3.5823,-3.598,-3.575,-3.5749,-3.579,-3.6136,-3.6182,-3.6212,-3.594,-3.5944,-3.5948,-3.6135,0,-3.5738,-3.5857,-3.5804,-3.5929,-3.5977,-3.5888,-3.5951,-3.5954,-3.5933,-3.5972,-3.5949,-3.5994,-3.5912,-3.592,-3.5972,-3.595,-3.6048,-3.5936,-3.5991,-3.5994,-3.5989,-3.6244,-3.6294,-3.647,-3.6158,-3.6162,-3.6165,0,-3.5977,-3.5998,-3.6127,-3.611,-3.6129,-3.6186,-3.6208,-3.6246,-3.6248,-3.6229,-3.6245,-3.619,-3.6259,-3.6161,-3.6254,-3.6179,-3.6199,-3.6191,-3.6197,-3.6197,-3.6087,-3.6248,-3.6525,-3.655,-3.6202,-3.6199,-3.6196,0,-3.6173,-3.6234,-3.6318,-3.6325,-3.6309,-3.635,-3.6346,-3.6342,-3.6363,-3.6384,-3.6396,-3.6426,-3.6441,-3.6465,-3.6419,-3.6352,-3.6518,-3.6417,-3.6503,-3.6504,-3.6539,-3.6536,-3.682,-3.6558,-3.6558,-3.6558,-3.6557,0,-3.6391,-3.6473,-3.6406,-3.6457,-3.6546,-3.6486,-3.6575,-3.6561,-3.6559,-3.6606,-3.6533,-3.6579,-3.6517,-3.6558,-3.6523,-3.6604,-3.6613,-3.6598,-3.6587,-3.6602,-3.6603,-3.6611,-3.6596,-3.6564,-3.6563,-3.6562,-3.656,0,-3.6624,-3.6583,-3.6668,-3.6645,-3.6641,-3.6707,-3.6688,-3.6735,-3.6709,-3.6769,-3.678,-3.674,-3.6783,-3.6741,-3.6783,-3.6759,-3.6866,-3.684,-3.6865,-3.6856,-3.6942,-3.6933,-3.7237,-3.7273,-3.6993,-3.6996,-3.6998,0,-3.6764,-3.6824,-3.6807,-3.6832,-3.6832,-3.6875,-3.6895,-3.6838,-3.6862,-3.6869,-3.6915,-3.6952,-3.6977,-3.7051,-3.7026,-3.7057,-3.7028,-3.7132,-3.7032,-3.7044,-3.7025,-3.702,-3.7024,-3.7152,-3.7155,-3.7158,-3.716,0,-3.7015,-3.6991,-3.7022,-3.7046,-3.7072,-3.7089,-3.71,-3.7126,-3.7067,-3.7098,-3.714,-3.7161,-3.7202,-3.7239,-3.7262,-3.7258,-3.7199,-3.7192,-3.7213,-3.7227,-3.7237,-3.7229,-3.6916,-3.7185,-3.7182,-3.718,-3.7179,-3.7178,-3.7202,-3.725,-3.7245,-3.7282,-3.7284,-3.7296,-3.7338,-3.7317,-3.7351,-3.7378,-3.7344,-3.7395,-3.7395,-3.742,-3.7423,-3.7462,-3.7418,-3.7449,-3.7456,-3.7464,-3.7474,-3.7235,-3.7467,-3.7466,-3.7465,-3.7465,-3.7464,0,-3.7446,-3.7438,-3.7473,-3.7489,-3.7518,-3.746,-3.747,-3.7497,-3.7543,-3.7548,-3.7574,-3.7622,-3.7658,-3.7635,-3.7665,-3.7701,-3.7675,-3.7711,-3.7705,-3.7705,-3.7514,-3.7491,-3.7731,-3.7731,-3.7731,-3.7731,-3.7731,-3.7731,-3.7576,-3.7653,-3.7629,-3.7706,-3.7698,-3.7746,-3.7756,-3.7767,-3.7769,-3.7825,-3.7854,-3.7839,-3.7832,-3.7861,-3.789,-3.7883,-3.7896,-3.794,-3.7923,-3.7745,-3.7719,-3.7693,-3.7671,-3.7945,-3.7945,-3.8109,-3.8111,-3.8112]},{"header":{"parameterUnit":"m.s-1","parameterCategory":1,"la1":30.2991,"la2":30.254,"lo1":-89.0895,"lo2":-89.0444,"dy":0.0017,"dx":0.0017,"nx":28,"ny":28,"refTime":"2024-06-07T09:00:00:Z","depth":0,"parameterNumber":3,"parameterNumberName":"V-component_of_WINDS"},"data":[0,0,0,0,0,0,0,0,0,0,0,0,0,0,0,0,0,0,0,0,0,0,0,0,0,0,0,0,0,0,0,0,0,0,0,0,0,0,0,0,0,0,0,0,0,0,0,0,0,0,0,0,0,0,0,0,0,0,-1.4588,-1.4588,0,-1.4561,-1.4561,-1.4561,-1.4551,-1.4551,-1.4551,-1.4551,-1.4523,-1.4523,-1.4522,0,0,0,0,0,0,0,0,0,0,0,0,0,-1.463,-1.4629,-1.4588,-1.4588,-1.4588,-1.4561,-1.4561,-1.456,-1.4551,-1.4551,-1.4551,-1.4551,-1.4524,-1.4523,-1.4522,0,0,0,0,0,0,0,0,0,0,0,0,0,-1.4608,-1.4629,-1.4588,-1.458,-1.4579,-1.4561,-1.4561,-1.456,-1.4551,-1.4551,-1.4551,-1.4551,-1.4524,-1.4523,-1.4522,-1.4511,0,0,-1.4518,-1.4517,0,0,0,0,0,0,0,0,-1.461,-1.4607,-1.4581,-1.458,-1.4579,-1.456,-1.4565,-1.4544,-1.4551,-1.4561,-1.4551,-1.4551,-1.4535,-1.4533,-1.4528,-1.451,-1.4509,-1.4518,-1.4517,-1.4516,-1.4516,0,0,0,0,0,0,0,-1.4611,-1.4608,-1.4578,-1.4581,-1.4579,-1.4576,-1.4574,-1.4561,-1.4548,-1.456,-1.456,-1.4557,-1.4535,-1.4529,-1.4527,-1.4508,-1.4518,-1.4517,-1.4516,-1.4515,-1.4477,-1.4477,0,0,0,0,0,0,-1.4614,-1.4609,-1.4578,-1.4577,-1.4595,-1.4576,-1.4572,-1.4566,-1.4548,-1.4545,-1.4556,-1.4556,-1.4531,-1.4529,-1.4526,-1.4511,-1.4516,-1.4515,-1.4515,-1.4478,-1.4477,-1.4477,0,0,0,0,0,0,-1.4615,-1.4611,-1.458,-1.4593,-1.4588,-1.4575,-1.4567,-1.4565,-1.4559,-1.4545,-1.4542,-1.4553,-1.4531,-1.4528,-1.4514,-1.451,-1.4515,-1.4514,-1.4478,-1.4477,-1.4477,-1.4481,0,0,0,0,0,0,-1.4616,-1.4612,-1.4608,-1.4593,-1.4588,-1.4569,-1.4567,-1.4564,-1.4557,-1.4557,-1.4541,-1.4539,-1.4531,-1.4516,-1.4513,-1.4508,-1.4513,-1.4478,-1.4478,-1.4477,-1.4481,-1.4481,-1.4481,0,0,0,0,0,-1.4618,-1.4611,-1.4608,-1.4605,-1.4583,-1.4569,-1.4566,-1.4557,-1.4557,-1.4553,-1.4543,-1.4539,-1.4511,-1.4515,-1.4511,-1.4506,-1.4478,-1.4478,-1.4477,-1.4482,-1.4481,-1.4481,0,0,0,0,0,0,-1.4627,-1.4609,-1.4606,-1.4594,-1.4583,-1.4567,-1.4562,-1.4557,-1.4546,-1.4546,-1.4535,-1.4531,-1.4518,-1.4511,-1.4516,-1.4493,-1.4494,-1.4493,-1.4499,-1.4498,-1.4498,-1.4499,-1.4512,0,0,0,0,0,-1.4628,-1.4618,-1.4602,-1.4593,-1.4588,-1.4576,-1.4569,-1.4563,-1.4551,-1.4546,-1.4536,-1.4524,-1.4512,-1.4505,-1.4494,-1.448,-1.4476,-1.4475,-1.4474,-1.4474,-1.4473,-1.4463,-1.4461,-1.4475,-1.4475,-1.4475,0,0,-1.4629,-1.4618,-1.4612,-1.4595,-1.4586,-1.4575,-1.4572,-1.4561,-1.4552,-1.4545,-1.4531,-1.4522,-1.4509,-1.4495,-1.4488,-1.4488,-1.4468,-1.4473,-1.4473,-1.4472,-1.4462,-1.4461,-1.446,-1.4475,-1.4475,-1.4475,0,0,-1.4626,-1.4617,-1.4607,-1.4598,-1.4583,-1.4575,-1.4572,-1.4557,-1.4551,-1.4536,-1.453,-1.4519,-1.45,-1.4489,-1.4482,-1.4472,-1.4467,-1.4468,-1.4466,-1.4456,-1.4455,-1.4454,-1.4449,-1.4447,-1.4467,-1.4467,-1.4467,0,-1.4629,-1.4613,-1.4603,-1.4592,-1.4583,-1.4575,-1.4564,-1.4556,-1.4538,-1.4532,-1.4533,-1.4506,-1.4497,-1.4479,-1.4476,-1.4471,-1.4466,-1.447,-1.4456,-1.4455,-1.4454,-1.4449,-1.4447,-1.4467,-1.4467,-1.4467,-1.4467,0,-1.4617,-1.4605,-1.4599,-1.4582,-1.4573,-1.4562,-1.455,-1.4542,-1.4536,-1.4527,-1.4511,-1.4499,-1.4484,-1.4479,-1.4474,-1.446,-1.446,-1.4459,-1.4459,-1.4453,-1.4448,-1.4446,-1.4467,-1.4467,-1.4467,-1.4467,0,0,-1.462,-1.4595,-1.4593,-1.4584,-1.4566,-1.4557,-1.4545,-1.453,-1.4522,-1.451,-1.4499,-1.4481,-1.4479,-1.447,-1.4463,-1.4455,-1.4445,-1.4454,-1.4453,-1.4451,-1.4426,-1.4427,-1.4425,-1.4442,-1.4442,-1.4441,-1.4427,0,-1.4613,-1.4591,-1.4581,-1.4563,-1.4552,-1.4542,-1.4532,-1.4519,-1.451,-1.4498,-1.4488,-1.4475,-1.4474,-1.4468,-1.4459,-1.4448,-1.444,-1.4449,-1.443,-1.4429,-1.4433,-1.4422,-1.4424,-1.4411,-1.4425,-1.4425,-1.4425,0,-1.4603,-1.4589,-1.457,-1.4552,-1.4547,-1.4537,-1.4521,-1.451,-1.4495,-1.4489,-1.4477,-1.447,-1.4456,-1.4457,-1.4437,-1.4443,-1.4434,-1.4428,-1.4427,-1.4424,-1.4426,-1.4418,-1.4407,-1.4404,-1.4422,-1.4422,-1.4422,0,-1.4605,-1.4582,-1.4567,-1.456,-1.4539,-1.4532,-1.4522,-1.4507,-1.4498,-1.4484,-1.4477,-1.4461,-1.4453,-1.444,-1.4428,-1.4431,-1.4408,-1.4409,-1.4401,-1.4401,-1.4396,-1.4397,-1.4382,-1.4393,-1.4393,-1.4393,-1.4393,0,-1.4598,-1.4586,-1.4567,-1.4558,-1.4544,-1.4532,-1.4518,-1.4508,-1.4494,-1.4482,-1.4474,-1.4462,-1.4448,-1.4434,-1.4425,-1.4408,-1.4404,-1.4398,-1.4395,-1.4398,-1.4398,-1.4392,-1.4392,-1.4392,-1.4392,-1.4392,-1.4392,0,-1.4598,-1.4585,-1.4568,-1.4548,-1.4543,-1.4533,-1.4516,-1.4506,-1.4496,-1.448,-1.4476,-1.446,-1.4443,-1.443,-1.4408,-1.4402,-1.4383,-1.4381,-1.4388,-1.4387,-1.4379,-1.4379,-1.4358,-1.4354,-1.4369,-1.4369,-1.4369,0,-1.4594,-1.4585,-1.4564,-1.4554,-1.4545,-1.4531,-1.4521,-1.4508,-1.4497,-1.4478,-1.4469,-1.4452,-1.4437,-1.441,-1.4396,-1.4379,-1.4376,-1.4369,-1.4373,-1.4375,-1.4373,-1.4374,-1.4372,-1.4369,-1.4369,-1.4369,-1.4369,0,-1.4588,-1.4582,-1.4567,-1.455,-1.4538,-1.4524,-1.451,-1.4503,-1.4487,-1.4475,-1.4457,-1.4446,-1.4423,-1.4405,-1.4385,-1.4375,-1.4368,-1.4368,-1.4364,-1.4367,-1.437,-1.4366,-1.4385,-1.4368,-1.4368,-1.4368,-1.4368,-1.4368,-1.4585,-1.4575,-1.4558,-1.4542,-1.4529,-1.4516,-1.4505,-1.4492,-1.4477,-1.4457,-1.445,-1.4431,-1.4414,-1.4387,-1.4376,-1.4361,-1.436,-1.4356,-1.4355,-1.4354,-1.4353,-1.4374,-1.4357,-1.4357,-1.4357,-1.4357,-1.4357,0,-1.4577,-1.4565,-1.455,-1.453,-1.4516,-1.4511,-1.4494,-1.4483,-1.4467,-1.4451,-1.4436,-1.4414,-1.4396,-1.438,-1.436,-1.4351,-1.4347,-1.4346,-1.4346,-1.4343,-1.4356,-1.4359,-1.4349,-1.4349,-1.4349,-1.4349,-1.4349,-1.4349,-1.4572,-1.4554,-1.4545,-1.4521,-1.4509,-1.449,-1.448,-1.4467,-1.4454,-1.443,-1.4415,-1.4404,-1.4387,-1.4366,-1.4348,-1.4344,-1.4336,-1.4336,-1.433,-1.4342,-1.4343,-1.4344,-1.4347,-1.4334,-1.4334,-1.4319,-1.4319,-1.4319]}]]